This demonstration page uses our WeatherBlox Daily Observations layout. Learn more.

39.92423, -83.80882

Hourly Observations for April 10, 2020

Temp ( °F °C ) Dew Point ( °F °C ) Humidity (%) Winds ( mph kmh ) Pressure ( in mb ) Visibility ( mi km ) Precip ( " mm )
12:56 am 00:56 Mostly Cloudy 35 1.7 33 0.6 93 93 W 10 17 29.81 1010 10 16.0934 0 0
1:56 am 01:56 Clear 34 1.1 31 -0.6 89 89 WNW 13 20 29.83 1010 10 16.0934 0 0
2:56 am 02:56 Clear 34 1.1 31 -0.6 89 89 WNW 13 20 29.84 1011 10 16.0934 0 0
3:56 am 03:56 Clear 34 1.1 30 -1.1 85 85 WNW 15 24 29.85 1011 10 16.0934 0 0
4:56 am 04:56 Clear 33 0.6 30 -1.1 89 89 WNW 15 24 29.87 1012 10 16.0934 0 0
5:56 am 05:56 Clear 33 0.6 29 -1.7 85 85 WNW 15 24 29.89 1012 10 16.0934 0 0
6:56 am 06:56 Clear 33 0.6 28 -2.2 82 82 WNW 16 26 29.92 1013 10 16.0934 0 0
7:56 am 07:56 Sunny 34 1.1 28 -2.2 79 79 WNW 18 30 29.94 1014 10 16.0934 0 0
8:56 am 08:56 Partly Cloudy 36 2.2 29 -1.7 76 76 NW 14 22 29.97 1015 10 16.0934 0 0
9:42 am 09:42 Mostly Cloudy 37 3 28 -2 70 70 WNW 24 39 29.99 1016 10 16.0934 0 0
9:56 am 09:56 Cloudy 37 2.8 28 -2.2 70 70 NW 18 30 29.99 1016 10 16.0934 0 0
10:29 am 10:29 Cloudy 37 3 28 -2 70 70 NW 17 28 30.02 1017 10 16.0934 0 0
10:56 am 10:56 Cloudy 40 4.4 30 -1.1 68 68 WNW 18 30 30.01 1016 10 16.0934 0 0
11:56 am 11:56 Cloudy 40 4.4 29 -1.7 65 65 WNW 15 24 30.03 1017 10 16.0934 0 0
12:56 pm 12:56 Cloudy 40 4.4 27 -2.8 60 60 WNW 14 22 30.03 1017 10 16.0934 0 0
1:56 pm 13:56 Cloudy 40 4.4 27 -2.8 60 60 WNW 17 28 30.03 1017 10 16.0934 0 0
2:56 pm 14:56 Cloudy 42 5.6 28 -2.2 58 58 WNW 17 28 30.02 1017 10 16.0934 0 0
3:56 pm 15:56 Cloudy 42 5.6 28 -2.2 58 58 W 20 31 30.01 1016 10 16.0934 0 0
4:56 pm 16:56 Cloudy 43 6.1 28 -2.2 56 56 WNW 21 33 30.02 1017 10 16.0934 0 0
5:56 pm 17:56 Cloudy 44 6.7 28 -2.2 53 53 WNW 15 24 30.01 1016 10 16.0934 0 0
6:56 pm 18:56 Mostly Cloudy 43 6.1 27 -2.8 53 53 W 9 15 30.01 1016 10 16.0934 0 0
7:56 pm 19:56 Partly Cloudy 43 6.1 27 -2.8 53 53 W 12 19 30.01 1016 10 16.0934 0 0
8:56 pm 20:56 Partly Cloudy 39 3.9 30 -1.1 70 70 WSW 6 9 30.01 1016 10 16.0934 0 0
9:56 pm 21:56 Clear 38 3.3 29 -1.7 70 70 WSW 6 9 30.02 1017 10 16.0934 0 0
10:56 pm 22:56 Clear 37 2.8 29 -1.7 73 73 SW 3 6 30.02 1017 10 16.0934 0 0
11:56 pm 23:56 Clear 35 1.7 27 -2.8 72 72 Calm 30.02 1017 10 16.0934 0 0

Powered by AerisWeather